FW7807 Weather Reports


Display with metric or nautical units.
time (UTC)temp
F
wind
direction
speed
MPH
gust
MPH
rain 1hr
in
rain 24hr
in
rain mn
in
humidity
%
barometer
mb
20260510194543 68 156 1.0 3.0 0.00 0.00 0.00 63 1011.1
20260510193038 69 220 4.0 10.0 0.00 0.00 0.00 63 1010.9
20260510191545 69 241 6.0 10.0 0.00 0.00 0.00 61 1010.8
20260510190041 70 220 6.0 11.0 0.00 0.00 0.00 61 1010.6
20260510184536 70 256 7.0 11.0 0.00 0.00 0.00 59 1010.7
20260510183043 71 243 6.0 12.0 0.00 0.00 0.00 59 1010.4
20260510181548 71 223 9.0 18.0 0.00 0.00 0.00 58 1010.4
20260510180042 73 215 7.0 22.0 0.00 0.00 0.00 56 1010.4
20260510174543 73 261 13.0 24.0 0.00 0.00 0.00 54 1010.4
20260510173057 73 243 16.0 26.0 0.00 0.00 0.00 52 1010.3
20260510171536 74 232 11.0 19.0 0.00 0.00 0.00 53 1010.3
20260510170042 74 215 11.0 21.0 0.00 0.00 0.00 53 1010.1
20260510164558 74 213 16.0 28.0 0.00 0.00 0.00 51 1010.3
20260510163043 75 215 16.0 25.0 0.00 0.00 0.00 52 1010.2
20260510161537 75 236 17.0 25.0 0.00 0.00 0.00 51 1010.4
20260510160037 75 223 15.0 28.0 0.00 0.00 0.00 51 1010.2
20260510154537 75 229 21.0 33.0 0.00 0.00 0.00 50 1010.3
20260510153047 76 227 13.0 28.0 0.00 0.00 0.00 53 1010.4
20260510151539 76 229 19.0 32.0 0.00 0.00 0.00 51 1010.6
20260510150041 75 236 17.0 30.0 0.00 0.00 0.00 51 1010.6
20260510144547 76 205 19.0 30.0 0.00 0.00 0.00 52 1010.8
20260510143043 76 227 17.0 26.0 0.00 0.00 0.00 52 1010.8
20260510141542 76 195 13.0 24.0 0.00 0.00 0.00 53 1010.9
20260510140041 77 214 16.0 29.0 0.00 0.00 0.00 53 1011.1
20260510134550 77 217 13.0 28.0 0.00 0.00 0.00 52 1011.5
20260510133040 77 238 17.0 27.0 0.00 0.00 0.00 51 1011.5
20260510131540 73 198 11.0 20.0 0.00 0.00 0.00 68 1011.8
20260510130038 74 190 11.0 22.0 0.00 0.00 0.00 67 1012.1
20260510124539 74 186 10.0 18.0 0.00 0.00 0.00 68 1012.2
20260510123041 72 186 13.0 21.0 0.00 0.00 0.00 71 1012.5
20260510121540 71 205 12.0 19.0 0.00 0.00 0.00 71 1012.7
20260510120038 71 200 14.0 21.0 0.00 0.00 0.00 72 1012.9
20260510114537 71 197 12.0 22.0 0.00 0.02 0.00 71 1013.0
20260510113037 70 202 11.0 20.0 0.00 0.02 0.00 73 1013.1
20260510111538 69 167 13.0 20.0 0.00 0.02 0.00 73 1013.5
20260510110042 70 212 11.0 17.0 0.00 0.02 0.00 70 1013.6
20260510104542 71 182 8.0 18.0 0.00 0.11 0.00 71 1013.5
20260510103044 71 127 6.0 10.0 0.00 0.11 0.00 69 1013.5
20260510101539 70 121 4.0 9.0 0.00 0.11 0.00 67 1013.6
20260510100047 71 75 2.0 5.0 0.00 0.11 0.00 62 1013.6
20260510094547 70 80 1.0 5.0 0.00 0.46 0.00 66 1013.6
20260510093042 69 0 0.0 5.0 0.00 0.46 0.00 67 1013.9
20260510091539 68 74 1.0 5.0 0.00 0.46 0.00 69 1013.8
20260510090041 67 0 0.0 4.0 0.00 0.46 0.00 71 1014.0
20260510084549 65 190 2.0 6.0 0.00 0.82 0.00 75 1014.3
20260510083047 65 142 1.0 3.0 0.00 0.82 0.00 77 1014.2
20260510081542 64 232 0.0 4.0 0.00 0.82 0.00 79 1014.5
20260510080042 63 0 1.0 4.0 0.00 0.82 0.00 81 1014.4
20260510074541 62 314 2.0 6.0 0.00 1.12 0.00 82 1014.5
20260510073045 61 296 3.0 7.0 0.00 1.12 0.00 85 1014.9
20260510071544 60 342 2.0 4.0 0.00 1.12 0.00 86 1014.5
20260510070043 59 299 0.0 2.0 0.00 1.12 0.00 87 1014.4
20260510064602 58 0 0.0 3.0 0.00 1.32 0.00 88 1014.3
20260510063042 57 300 0.0 3.0 0.00 1.32 0.00 88 1014.3
20260510061542 56 269 1.0 3.0 0.00 1.32 0.00 89 1014.3
20260510060046 55 0 0.0 2.0 0.00 1.32 0.00 88 1014.2
20260510054538 55 0 0.0 2.0 0.00 1.32 0.00 88 1013.9
20260510053036 55 0 0.0 3.0 0.00 1.32 0.00 88 1014.0
20260510051541 55 319 2.0 5.0 0.00 1.32 0.00 88 1013.9
20260510050043 55 360 1.0 5.0 0.00 1.32 0.00 87 1013.8
20260510044542 56 322 2.0 5.0 0.00 1.32 0.00 88 1013.8
20260510043046 56 330 2.0 4.0 0.00 1.32 0.00 88 1013.8
20260510041552 56 0 0.0 0.0 0.00 1.32 0.00 87 1013.6
20260510040042 56 0 0.0 0.0 0.00 1.32 0.00 87 1013.6
20260510034535 56 0 0.0 0.0 0.00 1.32 0.00 87 1013.5
20260510033043 57 0 0.0 2.0 0.00 1.32 0.00 87 1013.4
20260510031541 57 253 1.0 3.0 0.00 1.32 0.00 87 1013.3
20260510030041 57 252 2.0 3.0 0.00 1.32 0.00 87 1013.4
20260510024551 56 248 3.0 5.0 0.00 1.32 0.00 86 1013.4
20260510023037 56 247 2.0 4.0 0.00 1.32 0.00 86 1013.2
20260510021542 57 325 2.0 4.0 0.00 1.32 0.00 86 1013.2
20260510020048 57 267 2.0 3.0 0.00 1.32 0.00 85 1013.0
20260510014542 57 0 0.0 0.0 0.00 1.32 0.00 85 1012.8
20260510013043 57 0 1.0 3.0 0.00 1.32 0.00 85 1013.0
20260510011540 57 0 0.0 3.0 0.00 1.32 0.00 84 1013.0
20260510010056 58 0 0.0 3.0 0.00 1.32 0.00 84 1013.1
20260510004536 58 262 1.0 3.0 0.00 1.32 0.00 84 1013.5
20260510003042 59 0 1.0 3.0 0.00 1.32 0.00 84 1013.5
20260510001539 60 185 1.0 2.0 0.00 1.32 0.00 83 1013.1
20260510000043 61 0 0.0 0.0 0.00 1.32 0.00 84 1013.5
20260509234556 61 0 0.0 2.0 0.00 1.32 0.00 83 1013.7
20260509233036 61 186 0.0 3.0 0.00 1.32 0.00 83 1013.9
20260509231543 61 186 1.0 2.0 0.00 1.32 0.00 82 1014.0
20260509230042 61 186 1.0 2.0 0.00 1.32 0.00 81 1013.9
20260509224540 62 0 0.0 2.0 0.00 1.32 0.00 81 1014.1
20260509223041 62 0 0.0 0.0 0.00 1.32 0.00 81 1014.1
20260509221601 62 0 0.0 1.0 0.00 1.32 0.00 80 1014.0
20260509220041 62 0 1.0 3.0 0.00 1.32 0.00 80 1013.8
20260509214539 62 188 1.0 2.0 0.00 1.32 1.32 79 1013.9
20260509213035 62 0 1.0 7.0 0.00 1.32 1.32 79 1013.7
20260509211542 62 227 5.0 9.0 0.00 1.32 1.32 78 1013.6
20260509210040 63 207 4.0 7.0 0.00 1.32 1.32 77 1013.5
20260509204538 63 217 4.0 8.0 0.00 1.32 1.32 76 1013.3
20260509203041 63 221 6.0 13.0 0.00 1.32 1.32 75 1013.3
20260509201535 63 240 5.0 12.0 0.00 1.32 1.32 75 1013.2
20260509200043 64 234 4.0 8.0 0.00 1.32 1.32 75 1012.9